| time (UTC) | temp F | wind direction | speed MPH | gust MPH | rain 1hr in | rain 24hr in | rain mn in | humidity % | barometer mb |
| 20260504205647 | 56 | 215 | 10.0 | 20.0 | 0.00 | 0.00 | 0.00 | 79 | 1013.0 |
| 20260504205144 | 56 | 195 | 9.0 | 17.0 | 0.00 | 0.00 | 0.00 | 79 | 1013.1 |
| 20260504204642 | 56 | 178 | 5.0 | 19.0 | 0.00 | 0.00 | 0.00 | 79 | 1012.9 |
| 20260504204141 | 56 | 194 | 10.0 | 18.0 | 0.00 | 0.00 | 0.00 | 79 | 1012.9 |
| 20260504203639 | 56 | 196 | 12.0 | 17.0 | 0.00 | 0.00 | 0.00 | 79 | 1013.1 |
| 20260504203137 | 56 | 196 | 7.0 | 16.0 | 0.00 | 0.00 | 0.00 | 79 | 1013.0 |
| 20260504202637 | 56 | 193 | 11.0 | 19.0 | 0.00 | 0.00 | 0.00 | 78 | 1013.0 |
| 20260504202134 | 56 | 191 | 13.0 | 18.0 | 0.00 | 0.00 | 0.00 | 78 | 1013.3 |
| 20260504201631 | 56 | 199 | 10.0 | 18.0 | 0.00 | 0.00 | 0.00 | 78 | 1013.2 |
| 20260504201129 | 56 | 184 | 10.0 | 21.0 | 0.00 | 0.00 | 0.00 | 79 | 1013.2 |
| 20260504200625 | 56 | 190 | 12.0 | 19.0 | 0.00 | 0.00 | 0.00 | 79 | 1013.1 |
| 20260504200122 | 55 | 195 | 15.0 | 21.0 | 0.00 | 0.00 | 0.00 | 78 | 1013.3 |
| 20260504195618 | 56 | 181 | 13.0 | 19.0 | 0.00 | 0.00 | 0.00 | 78 | 1013.3 |
| 20260504195114 | 56 | 191 | 13.0 | 17.0 | 0.00 | 0.00 | 0.00 | 78 | 1013.5 |
| 20260504194611 | 56 | 178 | 13.0 | 19.0 | 0.00 | 0.00 | 0.00 | 77 | 1013.4 |
| 20260504194107 | 57 | 190 | 11.0 | 21.0 | 0.00 | 0.00 | 0.00 | 77 | 1013.4 |
| 20260504193603 | 57 | 189 | 10.0 | 17.0 | 0.00 | 0.00 | 0.00 | 77 | 1013.5 |
| 20260504193102 | 57 | 216 | 9.0 | 18.0 | 0.00 | 0.00 | 0.00 | 76 | 1013.6 |
| 20260504192600 | 57 | 207 | 20.0 | 21.0 | 0.00 | 0.00 | 0.00 | 75 | 1013.4 |
| 20260504192058 | 57 | 216 | 17.0 | 23.0 | 0.00 | 0.00 | 0.00 | 76 | 1013.7 |
| 20260504191556 | 57 | 215 | 9.0 | 20.0 | 0.00 | 0.00 | 0.00 | 76 | 1013.5 |
| 20260504191051 | 57 | 203 | 10.0 | 17.0 | 0.00 | 0.00 | 0.00 | 76 | 1013.6 |
| 20260504190548 | 57 | 206 | 10.0 | 15.0 | 0.00 | 0.00 | 0.00 | 76 | 1013.7 |
| 20260504190044 | 57 | 192 | 9.0 | 21.0 | 0.00 | 0.00 | 0.00 | 76 | 1013.8 |
| 20260504185541 | 58 | 210 | 14.0 | 18.0 | 0.00 | 0.00 | 0.00 | 73 | 1013.7 |
| 20260504185038 | 58 | 209 | 10.0 | 19.0 | 0.00 | 0.00 | 0.00 | 74 | 1013.7 |
| 20260504184533 | 58 | 208 | 14.0 | 21.0 | 0.00 | 0.00 | 0.00 | 73 | 1013.8 |
| 20260504184029 | 58 | 217 | 13.0 | 18.0 | 0.00 | 0.00 | 0.00 | 73 | 1013.9 |
| 20260504183526 | 57 | 209 | 11.0 | 21.0 | 0.00 | 0.00 | 0.00 | 74 | 1014.0 |
| 20260504183025 | 57 | 217 | 15.0 | 22.0 | 0.00 | 0.00 | 0.00 | 76 | 1014.0 |
| 20260504182521 | 57 | 211 | 16.0 | 20.0 | 0.00 | 0.00 | 0.00 | 75 | 1013.9 |
| 20260504182018 | 57 | 205 | 10.0 | 24.0 | 0.00 | 0.00 | 0.00 | 77 | 1014.0 |
| 20260504181515 | 56 | 218 | 22.0 | 23.0 | 0.00 | 0.00 | 0.00 | 77 | 1014.0 |
| 20260504181014 | 56 | 206 | 12.0 | 20.0 | 0.00 | 0.00 | 0.00 | 77 | 1014.4 |
| 20260504180513 | 56 | 214 | 12.0 | 23.0 | 0.00 | 0.00 | 0.00 | 77 | 1014.1 |
| 20260504180011 | 56 | 212 | 17.0 | 21.0 | 0.00 | 0.00 | 0.00 | 78 | 1014.4 |
| 20260504175508 | 56 | 217 | 10.0 | 24.0 | 0.00 | 0.00 | 0.00 | 78 | 1014.3 |
| 20260504175005 | 57 | 220 | 13.0 | 19.0 | 0.00 | 0.00 | 0.00 | 78 | 1014.4 |
| 20260504174503 | 56 | 217 | 15.0 | 24.0 | 0.00 | 0.00 | 0.00 | 78 | 1014.3 |
| 20260504173959 | 56 | 213 | 13.0 | 21.0 | 0.00 | 0.00 | 0.00 | 77 | 1014.4 |
| 20260504173456 | 56 | 205 | 11.0 | 21.0 | 0.00 | 0.00 | 0.00 | 78 | 1014.6 |
| 20260504172953 | 56 | 212 | 20.0 | 22.0 | 0.00 | 0.00 | 0.00 | 78 | 1014.6 |
| 20260504172448 | 56 | 202 | 16.0 | 21.0 | 0.00 | 0.00 | 0.00 | 78 | 1014.5 |
| 20260504171945 | 56 | 203 | 13.0 | 21.0 | 0.00 | 0.00 | 0.00 | 79 | 1014.6 |
| 20260504171443 | 55 | 207 | 11.0 | 20.0 | 0.00 | 0.00 | 0.00 | 80 | 1014.6 |
| 20260504170939 | 56 | 211 | 17.0 | 20.0 | 0.00 | 0.00 | 0.00 | 79 | 1014.7 |
| 20260504170435 | 56 | 220 | 13.0 | 20.0 | 0.00 | 0.00 | 0.00 | 78 | 1015.0 |
| 20260504160355 | 55 | 202 | 12.0 | 18.0 | 0.00 | 0.00 | 0.00 | 78 | 1015.4 |
| 20260504150820 | 55 | 225 | 9.0 | 17.0 | 0.00 | 0.00 | 0.00 | 77 | 1015.9 |
| 20260504150316 | 56 | 208 | 12.0 | 14.0 | 0.00 | 0.00 | 0.00 | 75 | 1016.0 |
| 20260504141246 | 55 | 231 | 14.0 | 16.0 | 0.00 | 0.00 | 0.00 | 75 | 1016.3 |
| 20260504140743 | 55 | 223 | 10.0 | 20.0 | 0.00 | 0.00 | 0.00 | 75 | 1016.5 |
| 20260504140238 | 55 | 228 | 12.0 | 17.0 | 0.00 | 0.00 | 0.00 | 75 | 1016.3 |
| 20260504130707 | 53 | 237 | 11.0 | 20.0 | 0.00 | 0.00 | 0.00 | 76 | 1016.8 |
| 20260504130203 | 54 | 229 | 12.0 | 18.0 | 0.00 | 0.00 | 0.00 | 74 | 1016.7 |
| 20260504120127 | 53 | 230 | 12.0 | 20.0 | 0.00 | 0.00 | 0.00 | 75 | 1017.0 |
| 20260504110554 | 51 | 243 | 15.0 | 21.0 | 0.00 | 0.00 | 0.00 | 73 | 1016.8 |
| 20260504100516 | 51 | 229 | 17.0 | 20.0 | 0.00 | 0.00 | 0.00 | 77 | 1016.5 |
| 20260504081909 | 50 | 226 | 11.0 | 19.0 | 0.00 | 0.00 | 0.00 | 77 | 1015.9 |
| 20260504081406 | 50 | 239 | 11.0 | 14.0 | 0.00 | 0.00 | 0.00 | 77 | 1015.8 |
| 20260504080902 | 50 | 235 | 9.0 | 15.0 | 0.00 | 0.00 | 0.00 | 76 | 1015.9 |
| 20260504080359 | 50 | 247 | 9.0 | 15.0 | 0.00 | 0.00 | 0.00 | 76 | 1015.7 |
| 20260504070326 | 51 | 224 | 14.0 | 16.0 | 0.00 | 0.00 | 0.00 | 74 | 1015.3 |
| 20260504060247 | 51 | 244 | 8.0 | 18.0 | 0.00 | 0.00 | 0.00 | 71 | 1015.1 |
| 20260504050715 | 51 | 230 | 13.0 | 16.0 | 0.00 | 0.00 | 0.00 | 72 | 1015.0 |
| 20260504050213 | 52 | 222 | 12.0 | 18.0 | 0.00 | 0.00 | 0.00 | 70 | 1014.8 |
| 20260504045710 | 52 | 240 | 8.0 | 17.0 | 0.00 | 0.00 | 0.00 | 69 | 1014.9 |
| 20260504045210 | 51 | 235 | 12.0 | 17.0 | 0.00 | 0.00 | 0.00 | 72 | 1014.9 |
| 20260504044708 | 51 | 236 | 14.0 | 18.0 | 0.00 | 0.00 | 0.00 | 72 | 1014.9 |
| 20260504044205 | 51 | 231 | 11.0 | 18.0 | 0.00 | 0.00 | 0.00 | 73 | 1014.9 |
| 20260504043702 | 51 | 240 | 10.0 | 15.0 | 0.00 | 0.00 | 0.00 | 75 | 1015.0 |
| 20260504043158 | 51 | 218 | 13.0 | 18.0 | 0.00 | 0.00 | 0.00 | 76 | 1014.8 |
| 20260504042655 | 51 | 229 | 8.0 | 13.0 | 0.00 | 0.00 | 0.00 | 76 | 1015.2 |
| 20260504042152 | 51 | 221 | 10.0 | 14.0 | 0.00 | 0.00 | 0.00 | 75 | 1015.1 |
| 20260504041648 | 51 | 229 | 12.0 | 13.0 | 0.00 | 0.00 | 0.00 | 75 | 1014.9 |
| 20260504041144 | 51 | 218 | 8.0 | 13.0 | 0.00 | 0.00 | 0.00 | 74 | 1015.0 |
| 20260504040641 | 51 | 233 | 9.0 | 11.0 | 0.00 | 0.00 | 0.00 | 75 | 1014.8 |
| 20260504040138 | 51 | 239 | 6.0 | 12.0 | 0.00 | 0.00 | 0.00 | 74 | 1014.9 |
| 20260504035634 | 51 | 227 | 8.0 | 11.0 | 0.00 | 0.00 | 0.00 | 74 | 1014.7 |
| 20260504035131 | 51 | 228 | 8.0 | 11.0 | 0.00 | 0.00 | 0.00 | 72 | 1015.0 |
| 20260504034629 | 52 | 228 | 9.0 | 13.0 | 0.00 | 0.00 | 0.00 | 69 | 1014.9 |
| 20260504034126 | 52 | 229 | 11.0 | 13.0 | 0.00 | 0.00 | 0.00 | 65 | 1014.7 |
| 20260504033624 | 53 | 239 | 9.0 | 11.0 | 0.00 | 0.00 | 0.00 | 64 | 1014.6 |
| 20260504033121 | 52 | 227 | 11.0 | 15.0 | 0.00 | 0.00 | 0.00 | 68 | 1014.5 |
| 20260504032618 | 51 | 225 | 12.0 | 16.0 | 0.00 | 0.00 | 0.00 | 73 | 1014.6 |
| 20260504032115 | 51 | 231 | 9.0 | 15.0 | 0.00 | 0.00 | 0.00 | 73 | 1014.7 |
| 20260504031612 | 52 | 231 | 10.0 | 15.0 | 0.00 | 0.00 | 0.00 | 73 | 1014.7 |
| 20260504031108 | 51 | 234 | 11.0 | 13.0 | 0.00 | 0.00 | 0.00 | 73 | 1014.7 |
| 20260504030605 | 52 | 223 | 9.0 | 12.0 | 0.00 | 0.00 | 0.00 | 72 | 1014.9 |
| 20260504030101 | 52 | 239 | 9.0 | 16.0 | 0.00 | 0.00 | 0.00 | 70 | 1014.6 |
| 20260504025558 | 51 | 235 | 10.0 | 13.0 | 0.00 | 0.00 | 0.00 | 71 | 1014.9 |
| 20260504025055 | 51 | 246 | 10.0 | 10.0 | 0.00 | 0.00 | 0.00 | 75 | 1014.8 |
| 20260504024552 | 51 | 231 | 7.0 | 11.0 | 0.00 | 0.00 | 0.00 | 77 | 1014.9 |
| 20260504024049 | 51 | 217 | 7.0 | 13.0 | 0.00 | 0.00 | 0.00 | 77 | 1014.7 |
| 20260504023546 | 51 | 225 | 8.0 | 10.0 | 0.00 | 0.00 | 0.00 | 78 | 1014.7 |
| 20260504023042 | 51 | 207 | 7.0 | 8.0 | 0.00 | 0.00 | 0.00 | 77 | 1014.8 |
| 20260504022538 | 51 | 209 | 6.0 | 9.0 | 0.00 | 0.00 | 0.00 | 75 | 1014.7 |
| 20260504022034 | 53 | 230 | 9.0 | 12.0 | 0.00 | 0.00 | 0.00 | 62 | 1014.6 |
| 20260504021532 | 53 | 239 | 7.0 | 15.0 | 0.00 | 0.00 | 0.00 | 59 | 1014.6 |
| 20260504021028 | 53 | 232 | 11.0 | 11.0 | 0.00 | 0.00 | 0.00 | 61 | 1014.8 |
| 20260504020525 | 52 | 243 | 5.0 | 8.0 | 0.00 | 0.00 | 0.00 | 67 | 1014.7 |
| 20260504020022 | 52 | 236 | 7.0 | 12.0 | 0.00 | 0.00 | 0.00 | 68 | 1014.6 |
| 20260504015518 | 52 | 238 | 6.0 | 12.0 | 0.00 | 0.00 | 0.00 | 69 | 1014.6 |
| 20260504015014 | 52 | 229 | 12.0 | 13.0 | 0.00 | 0.00 | 0.00 | 70 | 1014.4 |
| 20260504014510 | 52 | 220 | 7.0 | 11.0 | 0.00 | 0.00 | 0.00 | 67 | 1014.6 |
| 20260504014008 | 53 | 232 | 11.0 | 15.0 | 0.00 | 0.00 | 0.00 | 61 | 1014.5 |
| 20260504013506 | 53 | 228 | 5.0 | 11.0 | 0.00 | 0.00 | 0.00 | 59 | 1014.3 |
| 20260504013001 | 53 | 236 | 11.0 | 12.0 | 0.00 | 0.00 | 0.00 | 58 | 1014.3 |
| 20260504012500 | 53 | 232 | 8.0 | 11.0 | 0.00 | 0.00 | 0.00 | 59 | 1014.5 |
| 20260504011957 | 53 | 225 | 11.0 | 13.0 | 0.00 | 0.00 | 0.00 | 62 | 1014.2 |
| 20260504011453 | 54 | 212 | 7.0 | 12.0 | 0.00 | 0.00 | 0.00 | 54 | 1014.4 |
| 20260504010949 | 54 | 236 | 5.0 | 7.0 | 0.00 | 0.00 | 0.00 | 43 | 1014.0 |
| 20260504010446 | 55 | 236 | 5.0 | 7.0 | 0.00 | 0.00 | 0.00 | 43 | 1014.0 |
| 20260504005942 | 55 | 231 | 7.0 | 9.0 | 0.00 | 0.00 | 0.00 | 46 | 1014.0 |
| 20260504005439 | 55 | 240 | 3.0 | 6.0 | 0.00 | 0.00 | 0.00 | 49 | 1013.8 |
| 20260504004936 | 56 | 257 | 3.0 | 8.0 | 0.00 | 0.00 | 0.00 | 52 | 1013.7 |
| 20260504004434 | 57 | 264 | 6.0 | 8.0 | 0.00 | 0.00 | 0.00 | 50 | 1013.8 |
| 20260504003930 | 56 | 261 | 4.0 | 9.0 | 0.00 | 0.00 | 0.00 | 51 | 1013.9 |
| 20260504003427 | 56 | 271 | 7.0 | 9.0 | 0.00 | 0.00 | 0.00 | 50 | 1013.8 |
| 20260504002923 | 56 | 266 | 7.0 | 9.0 | 0.00 | 0.00 | 0.00 | 49 | 1013.6 |
| 20260504002420 | 56 | 271 | 8.0 | 9.0 | 0.00 | 0.00 | 0.00 | 51 | 1013.2 |
| 20260504001918 | 57 | 272 | 6.0 | 9.0 | 0.00 | 0.00 | 0.00 | 51 | 1013.4 |
| 20260504001416 | 57 | 267 | 8.0 | 9.0 | 0.00 | 0.00 | 0.00 | 50 | 1013.4 |
| 20260504000912 | 57 | 276 | 10.0 | 13.0 | 0.00 | 0.00 | 0.00 | 47 | 1013.2 |
| 20260504000409 | 57 | 267 | 7.0 | 12.0 | 0.00 | 0.00 | 0.00 | 46 | 1013.4 |
| 20260503235906 | 57 | 273 | 10.0 | 15.0 | 0.00 | 0.00 | 0.00 | 46 | 1013.3 |
| 20260503235404 | 57 | 269 | 8.0 | 13.0 | 0.00 | 0.00 | 0.00 | 46 | 1013.1 |
| 20260503234901 | 57 | 274 | 12.0 | 18.0 | 0.00 | 0.00 | 0.00 | 45 | 1013.1 |
| 20260503234359 | 58 | 290 | 16.0 | 18.0 | 0.00 | 0.00 | 0.00 | 41 | 1013.1 |
| 20260503233856 | 58 | 281 | 12.0 | 18.0 | 0.00 | 0.00 | 0.00 | 47 | 1013.0 |
| 20260503233353 | 58 | 284 | 18.0 | 21.0 | 0.00 | 0.00 | 0.00 | 42 | 1012.8 |
| 20260503232849 | 58 | 280 | 13.0 | 21.0 | 0.00 | 0.00 | 0.00 | 43 | 1012.7 |
| 20260503232347 | 58 | 300 | 18.0 | 23.0 | 0.00 | 0.00 | 0.00 | 43 | 1012.8 |
| 20260503231845 | 58 | 291 | 16.0 | 23.0 | 0.00 | 0.00 | 0.00 | 42 | 1012.5 |
| 20260503231342 | 58 | 288 | 19.0 | 25.0 | 0.00 | 0.00 | 0.00 | 42 | 1012.8 |
| 20260503230838 | 58 | 291 | 21.0 | 24.0 | 0.00 | 0.00 | 0.00 | 41 | 1012.6 |
| 20260503230335 | 58 | 287 | 24.0 | 26.0 | 0.00 | 0.00 | 0.00 | 39 | 1012.6 |
| 20260503225833 | 58 | 307 | 22.0 | 22.0 | 0.00 | 0.00 | 0.00 | 39 | 1012.7 |
| 20260503225328 | 58 | 309 | 19.0 | 20.0 | 0.00 | 0.00 | 0.00 | 42 | 1012.6 |
| 20260503224824 | 58 | 304 | 24.0 | 32.0 | 0.00 | 0.00 | 0.00 | 40 | 1012.4 |
| 20260503224321 | 58 | 303 | 23.0 | 25.0 | 0.00 | 0.00 | 0.00 | 41 | 1012.5 |
| 20260503223819 | 58 | 294 | 28.0 | 30.0 | 0.00 | 0.00 | 0.00 | 41 | 1012.5 |
| 20260503223317 | 58 | 283 | 15.0 | 22.0 | 0.00 | 0.00 | 0.00 | 43 | 1012.7 |
| 20260503222812 | 58 | 293 | 22.0 | 28.0 | 0.00 | 0.00 | 0.00 | 43 | 1012.5 |
| 20260503222311 | 58 | 285 | 18.0 | 27.0 | 0.00 | 0.00 | 0.00 | 41 | 1012.4 |
| 20260503221809 | 58 | 285 | 12.0 | 25.0 | 0.00 | 0.00 | 0.00 | 50 | 1012.2 |
| 20260503221307 | 58 | 272 | 15.0 | 23.0 | 0.00 | 0.00 | 0.00 | 40 | 1012.3 |
| 20260503220802 | 57 | 292 | 22.0 | 27.0 | 0.00 | 0.00 | 0.00 | 37 | 1012.6 |
| 20260503220300 | 57 | 288 | 19.0 | 25.0 | 0.00 | 0.00 | 0.00 | 42 | 1012.3 |
| 20260503215756 | 57 | 296 | 20.0 | 25.0 | 0.00 | 0.00 | 0.00 | 45 | 1012.4 |
| 20260503215253 | 57 | 293 | 20.0 | 25.0 | 0.00 | 0.00 | 0.00 | 49 | 1012.3 |
| 20260503214751 | 57 | 295 | 22.0 | 26.0 | 0.00 | 0.00 | 0.00 | 44 | 1012.5 |
| 20260503214248 | 57 | 288 | 22.0 | 33.0 | 0.00 | 0.00 | 0.00 | 41 | 1012.3 |
| 20260503213746 | 57 | 287 | 26.0 | 29.0 | 0.00 | 0.00 | 0.00 | 40 | 1012.4 |
| 20260503213243 | 57 | 297 | 27.0 | 38.0 | 0.00 | 0.00 | 0.00 | 42 | 1012.3 |
| 20260503212739 | 57 | 299 | 28.0 | 33.0 | 0.00 | 0.00 | 0.00 | 42 | 1012.4 |
| 20260503212238 | 57 | 310 | 25.0 | 30.0 | 0.00 | 0.00 | 0.00 | 48 | 1012.2 |
| 20260503211735 | 57 | 295 | 31.0 | 36.0 | 0.00 | 0.00 | 0.00 | 44 | 1012.3 |
| 20260503211231 | 57 | 297 | 29.0 | 34.0 | 0.00 | 0.00 | 0.00 | 48 | 1012.0 |
| 20260503210726 | 56 | 293 | 35.0 | 37.0 | 0.00 | 0.00 | 0.00 | 44 | 1012.0 |
| 20260503210224 | 57 | 297 | 31.0 | 33.0 | 0.00 | 0.00 | 0.00 | 43 | 1012.0 |